EN

Hourly Weather Pamashtur

Today, 24 February, Wednesday

Time Temperature Precipitation Wind Pressure Humidity
00:00 -34°C° 0 mm 3 mps 769 mmHg 95%
01:00 -34°C° 0 mm 3 mps 769 mmHg 95%
02:00 -34°C° 0 mm 3 mps 769 mmHg 95%
03:00 -34°C° 0 mm 3 mps 769 mmHg 97%
04:00 -34°C° 0 mm 3 mps 769 mmHg 97%
05:00 -35°C° 0 mm 3 mps 769 mmHg 96%
06:00 -35°C° 0 mm 3 mps 769 mmHg 96%
07:00 -34°C° 0 mm 3 mps 769 mmHg 95%
08:00 -33°C° 0 mm 3 mps 769 mmHg 94%
09:00 -31°C° 0 mm 3 mps 769 mmHg 93%
10:00 -29°C° 0 mm 3 mps 769 mmHg 92%
11:00 -27°C° 0 mm 3 mps 768 mmHg 91%
12:00 -25°C° 0 mm 3 mps 768 mmHg 90%
13:00 -24°C° 0 mm 3 mps 768 mmHg 90%
14:00 -23°C° 0 mm 3 mps 768 mmHg 89%
15:00 -23°C° 0 mm 3 mps 767 mmHg 89%
16:00 -23°C° 0 mm 2 mps 767 mmHg 91%
17:00 -25°C° 0 mm 2 mps 767 mmHg 93%
18:00 -26°C° 0 mm 2 mps 767 mmHg 96%
19:00 -23°C° 0 mm 1 mps 767 mmHg 96%
20:00 -24°C° 0 mm 1 mps 766 mmHg 96%
21:00 -24°C° 0 mm 0 mps 766 mmHg 96%
22:00 -24°C° 0 mm 0 mps 766 mmHg 96%
23:00 -24°C° 0 mm 1 mps 766 mmHg 96%

Tomorrow, 25 February, Thursday

Time Temperature Precipitation Wind Pressure Humidity
00:00 -24°C° 0 mm 1 mps 766 mmHg 96%
01:00 -24°C° 0 mm 1 mps 765 mmHg 96%
02:00 -24°C° 0 mm 1 mps 765 mmHg 96%
03:00 -24°C° 0 mm 1 mps 765 mmHg 96%
04:00 -26°C° 0 mm 2 mps 764 mmHg 96%
05:00 -26°C° 0 mm 2 mps 763 mmHg 95%
06:00 -26°C° 0 mm 2 mps 763 mmHg 95%
07:00 -26°C° 0 mm 3 mps 762 mmHg 94%
08:00 -25°C° 0 mm 3 mps 761 mmHg 92%
09:00 -25°C° 0 mm 4 mps 760 mmHg 91%
10:00 -24°C° 0.1 mm 4 mps 760 mmHg 92%
11:00 -24°C° 0.1 mm 5 mps 759 mmHg 92%
12:00 -22°C° 0.1 mm 5 mps 758 mmHg 93%
13:00 -21°C° 0.3 mm 5 mps 757 mmHg 93%
14:00 -21°C° 0.3 mm 5 mps 757 mmHg 93%
15:00 -20°C° 0.3 mm 5 mps 756 mmHg 94%
16:00 -20°C° 0.4 mm 5 mps 755 mmHg 94%
17:00 -20°C° 0.4 mm 5 mps 755 mmHg 94%
18:00 -21°C° 0.4 mm 5 mps 754 mmHg 94%
19:00 -21°C° 0.2 mm 5 mps 754 mmHg 94%
20:00 -21°C° 0.2 mm 5 mps 754 mmHg 94%
21:00 -20°C° 0.2 mm 4 mps 754 mmHg 94%
22:00 -20°C° 0 mm 4 mps 753 mmHg 94%
23:00 -20°C° 0 mm 4 mps 753 mmHg 94%

Day after tomorrow, 26 February, Friday

Time Temperature Precipitation Wind Pressure Humidity
00:00 -20°C° 0 mm 4 mps 753 mmHg 94%
01:00 -20°C° 0 mm 4 mps 753 mmHg 94%
02:00 -19°C° 0 mm 3 mps 753 mmHg 94%
03:00 -19°C° 0 mm 3 mps 753 mmHg 94%
04:00 -19°C° 0.1 mm 3 mps 752 mmHg 94%
05:00 -19°C° 0.1 mm 3 mps 752 mmHg 94%
06:00 -19°C° 0.1 mm 3 mps 751 mmHg 95%
07:00 -19°C° 0 mm 3 mps 751 mmHg 94%
08:00 -18°C° 0 mm 3 mps 751 mmHg 93%
09:00 -19°C° 0 mm 4 mps 751 mmHg 93%
10:00 -17°C° 0 mm 4 mps 751 mmHg 92%
11:00 -16°C° 0 mm 4 mps 750 mmHg 92%
12:00 -15°C° 0 mm 5 mps 750 mmHg 91%
13:00 -15°C° 0 mm 5 mps 749 mmHg 91%
14:00 -14°C° 0 mm 5 mps 748 mmHg 91%
15:00 -15°C° 0 mm 6 mps 747 mmHg 91%
16:00 -15°C° 0.4 mm 6 mps 746 mmHg 92%
17:00 -14°C° 0.4 mm 6 mps 745 mmHg 93%
18:00 -14°C° 0.4 mm 6 mps 743 mmHg 93%
19:00 -14°C° 1.4 mm 6 mps 742 mmHg 94%
20:00 -12°C° 1.4 mm 6 mps 741 mmHg 94%
21:00 -11°C° 1.4 mm 6 mps 739 mmHg 94%
22:00 -11°C° 1.3 mm 6 mps 739 mmHg 94%
23:00 -10°C° 1.3 mm 5 mps 738 mmHg 95%

27 February, Saturday

Time Temperature Precipitation Wind Pressure Humidity
00:00 -8°C° 1.3 mm 4 mps 737 mmHg 96%
01:00 -7°C° 0.3 mm 4 mps 737 mmHg 96%
02:00 -4°C° 0.3 mm 3 mps 736 mmHg 97%
03:00 -2°C° 0.3 mm 3 mps 736 mmHg 98%
04:00 -2°C° 0.2 mm 3 mps 736 mmHg 98%
05:00 -1°C° 0.2 mm 3 mps 735 mmHg 97%
06:00 -1°C° 0.2 mm 3 mps 735 mmHg 97%
07:00 -1°C° 0.2 mm 3 mps 735 mmHg 98%
08:00 -1°C° 0.2 mm 3 mps 735 mmHg 98%
09:00 -1°C° 0.2 mm 3 mps 735 mmHg 99%
10:00 -1°C° 0.3 mm 3 mps 735 mmHg 99%
11:00 -1°C° 0.3 mm 3 mps 735 mmHg 99%
12:00 -1°C° 0.3 mm 2 mps 736 mmHg 99%
13:00 -1°C° 0.3 mm 3 mps 736 mmHg 98%
14:00 -2°C° 0.3 mm 3 mps 737 mmHg 97%
15:00 -4°C° 0.3 mm 4 mps 737 mmHg 96%
16:00 -7°C° 0.1 mm 4 mps 738 mmHg 95%
17:00 -9°C° 0.1 mm 4 mps 738 mmHg 94%
18:00 -12°C° 0.1 mm 5 mps 738 mmHg 93%
19:00 -12°C° 0.2 mm 5 mps 739 mmHg 93%
20:00 -13°C° 0.2 mm 5 mps 740 mmHg 93%
21:00 -13°C° 0.2 mm 5 mps 740 mmHg 93%
22:00 -14°C° 0.1 mm 4 mps 741 mmHg 93%
23:00 -15°C° 0.1 mm 4 mps 741 mmHg 93%

28 February, Sunday

Time Temperature Precipitation Wind Pressure Humidity
00:00 -15°C° 0.1 mm 4 mps 741 mmHg 93%
01:00 -16°C° 0.1 mm 4 mps 742 mmHg 93%
02:00 -17°C° 0.1 mm 4 mps 742 mmHg 92%
03:00 -17°C° 0.1 mm 4 mps 743 mmHg 92%
04:00 -18°C° 0 mm 4 mps 744 mmHg 92%
05:00 -19°C° 0 mm 4 mps 744 mmHg 93%
06:00 -19°C° 0 mm 4 mps 745 mmHg 93%
07:00 -19°C° 0 mm 4 mps 745 mmHg 93%
08:00 -19°C° 0 mm 4 mps 746 mmHg 92%
09:00 -18°C° 0 mm 4 mps 746 mmHg 92%
10:00 -18°C° 0 mm 4 mps 747 mmHg 91%
11:00 -17°C° 0 mm 4 mps 747 mmHg 91%
12:00 -17°C° 0 mm 4 mps 748 mmHg 90%
13:00 -17°C° 0 mm 4 mps 748 mmHg 89%
14:00 -16°C° 0 mm 4 mps 749 mmHg 89%
15:00 -16°C° 0 mm 4 mps 749 mmHg 89%
16:00 -17°C° 0 mm 4 mps 749 mmHg 91%
17:00 -17°C° 0 mm 3 mps 750 mmHg 92%
18:00 -17°C° 0 mm 2 mps 750 mmHg 94%
19:00 -18°C° 0 mm 2 mps 751 mmHg 95%
20:00 -19°C° 0 mm 2 mps 752 mmHg 96%
21:00 -19°C° 0 mm 2 mps 752 mmHg 96%
22:00 -20°C° 0 mm 2 mps 753 mmHg 97%
23:00 -21°C° 0 mm 2 mps 753 mmHg 97%

1 March, Monday

Time Temperature Precipitation Wind Pressure Humidity
00:00 -21°C° 0 mm 2 mps 753 mmHg 98%
01:00 -23°C° 0 mm 2 mps 754 mmHg 98%
02:00 -23°C° 0 mm 2 mps 754 mmHg 97%
03:00 -24°C° 0 mm 2 mps 755 mmHg 97%
04:00 -24°C° 0 mm 2 mps 755 mmHg 97%
05:00 -25°C° 0 mm 2 mps 755 mmHg 97%
06:00 -25°C° 0 mm 2 mps 755 mmHg 97%
07:00 -24°C° 0 mm 2 mps 756 mmHg 96%
08:00 -23°C° 0 mm 2 mps 756 mmHg 95%
09:00 -20°C° 0 mm 2 mps 756 mmHg 94%
10:00 -18°C° 0 mm 2 mps 756 mmHg 92%
11:00 -17°C° 0 mm 2 mps 756 mmHg 89%
12:00 -15°C° 0 mm 2 mps 757 mmHg 87%
13:00 -14°C° 0 mm 2 mps 756 mmHg 88%
14:00 -13°C° 0 mm 2 mps 756 mmHg 89%
15:00 -13°C° 0 mm 2 mps 755 mmHg 90%
16:00 -14°C° 0 mm 2 mps 755 mmHg 92%
17:00 -15°C° 0 mm 2 mps 755 mmHg 94%
18:00 -16°C° 0 mm 2 mps 754 mmHg 96%
19:00 -16°C° 0 mm 3 mps 754 mmHg 96%
20:00 -16°C° 0 mm 3 mps 753 mmHg 95%
21:00 -15°C° 0 mm 3 mps 752 mmHg 95%
22:00 -13°C° 0.2 mm 3 mps 752 mmHg 95%
23:00 -12°C° 0.2 mm 4 mps 751 mmHg 95%
Show more

We Need Your Consent

Meteoprog and our Service Providers may store and access personal data such as cookies, device identifiers or other similar technologies on your device and process such data to personalise content and ads, as well as provide social media features and to analyse the traffic.

  • Store and/or access information on your device

    Cookies, device identifiers or other information can be stored or accessed on your device for the purposes indicated above.

  • Personalised ads and content, ad and content measurement, audience insights, and products development

    Ads and content can be personalised based on a profile. More data can be added to better personalise ads and content. Ad and content performance can be measured. Insights about the audience who saw the ads and content can be derived. Such data can be used to develop or improve user’s experience, systems and software.

By clicking ‘I Agree’ you will allow the use of indicated cookies, device identifiers, web beacons or other similar technologies. Your settings can be changed in the browser on your device.

For certain purposes, legitimate interests may be relied on, rather than consent. You can read more about this in our Privacy and Cookie Policy.